sat.trackr.live / text

‹ back to catalog

FLOCK 4G-13

NORAD 62621 · 2025-009N

PAYLOAD ACTIVE UNKNOWN

§ Identity

Operator
Country
US
Launch date
2025-01-14
Launch site
AFWTR
Launch vehicle
Mass (kg)
RCS (m²)

Purposes: earth_obs

External: N2YO · Heavens-Above · Gunter

§ Orbital elements

Epoch: 2026-05-24T17:47:37.910400Z

Period
93.43 min
Inclination
97.3966°
Eccentricity
0.0002734
Mean motion
15.41186598 rev/d
Perigee alt
440.7 km
Apogee alt
444.5 km
Semi-major
6,820.7 km
B*
1.3429e-3
RAAN
227.6419°
Arg perigee
68.5728°
Mean anomaly
291.5810°
Rev number
7,538

§ Raw data

FLOCK 4G-131 62621U 25009N   26144.74141100  .00055967  00000+0  13429-2 0  99902 62621  97.3966 227.6419 0002734  68.5728 291.5810 15.41186598 75389

JSON: /api/v1/satellites/62621 · /tle

For live sub-satellite position, see the globe view (requires WebGL).

§ Visibility from observer

Set your observer location to see the next 7 days of passes ≥ 10°. The values pass through the URL so the page stays shareable.

No JS? Fill the form by hand. The geolocation button needs JavaScript.